Location: Zagreb
(45.8000°N, 16.0000°E)
Time: 19:52:23
(UTC+02:00)

ISS - Pass Details

Date: 28 September 2021
Orbit: 417 x 423 km, 51.6° (Epoch: 23 October)

Event Time Altitude Azimuth Distance (km) Brightness Sun altitude
Rises 19:23:53 0° 289° (WNW) 2,363 1.9 -8.2°
Reaches altitude 10° 19:26:09 10° 301° (WNW) 1,500 0.2 -8.6°
Maximum altitude 19:29:09 29° 4° (N) 796 -2.3 -9.1°
Enters shadow 19:32:02 11° 66° (ENE) 1,460 -1.5 -9.6°
